www.pogodaiklimat.ru

Погода и климат >> Архив погоды >> Австралия >> Западная Австралия >> Аэропорт Аргайл


ПОГОДА в Аэропорту Аргайл

  • Прогноз погоды в Аэропорту Аргайл
  • Монитор погоды в Аэропорту Аргайл

АРХИВ ПОГОДЫ в Аэропорту Аргайл

Время (UTC), дата Ветер
(напр.,м/с)
 
Видим.   Явления Облачность Т
(С)
Тd
(С)
f
(%)
Тe
(С)
Тes
(С)
Комфортность P
(гПа)
Po
(гПа)
Тmin
(С)
Tmax
(С)
R
(мм)
R24
(мм)
S
(см)
19 14.04 З 2 н/о н/о +27.4 +15.4 48 +30 +30 жарко 1010.8 992.3
21 14.04 штиль 0 н/о н/о +25.6 +15.3 53 +29 +29 душно 1011.7 993.2
22 14.04 штиль 0 н/о н/о +25.9 +16.5 56 +29 +29 душно 1012.3 993.7
00 15.04 СВ 2 н/о н/о +31.5 +18.1 45 +36 +36 очень
душно
1013.2 994.6
01 15.04 Ю 1 н/о н/о +32.1 +18.7 45 +37 +37 очень
душно
1013.3 994.7 +24.9
03 15.04 СВ 3 н/о н/о +35.3 +15.6 31 +37 +37 очень
душно
1011.4 992.9
04 15.04 СВ 2 н/о н/о +35.4 +15.2 30 +37 +37 очень
душно
1010.1 991.6
06 15.04 С 5 н/о н/о +37.4 +13.4 24 +38 +38 душно 1008.6 990.1
07 15.04 СВ 4 н/о н/о +36.6 +12.8 24 +37 +37 очень
жарко
1008.4 989.9
10 15.04 СВ 4 н/о н/о +33.0 +13.6 31 +34 +34 очень
жарко
1009.5 991.0
12 15.04 С 3 н/о н/о +32.0 +14.2 34 +34 +34 душно 1011.1 992.6
13 15.04 СЗ 2 н/о н/о +30.7 +14.8 38 +33 +33 душно 1011.6 993.1 +38.3
15 15.04 СЗ 3 н/о н/о +29.8 +17.6 48 +34 +34 очень
душно
1011.7 993.2
16 15.04 С 3 н/о н/о +29.2 +17.4 49 +33 +33 очень
душно
1011.3 992.8
18 15.04 С 3 н/о н/о +28.4 +17.0 50 +32 +32 душно 1010.8 992.3
19 15.04 З 2 н/о н/о +28.0 +17.5 53 +32 +32 душно 1011.0 992.5
21 15.04 ЮЗ 2 н/о н/о +27.5 +17.9 56 +32 +32 очень
душно
1011.7 993.2
22 15.04 Ю 3 н/о н/о +27.1 +17.8 57 +32 +32 очень
душно
1012.3 993.7
00 16.04 В 1 н/о н/о +31.2 +18.5 47 +36 +36 очень
душно
1013.1 994.5
01 16.04 ЮВ 2 н/о н/о +33.1 +18.5 42 +38 +38 очень
душно
1013.0 994.4 +27.1
03 16.04 СВ 4 н/о н/о +36.4 +13.2 25 +37 +37 очень
жарко
1011.4 992.9
04 16.04 СВ 4 н/о 5/0
[]
+37.0 +13.7 25 +37 +47 очень
жарко
1010.4 991.9
06 16.04 СЗ 4 н/о н/о +37.7 +13.7 24 +38 +38 очень
жарко
1009.0 990.5
07 16.04 С 1 н/о 3/0
[]
+37.5 +13.5 24 +38 +44 очень
жарко
1008.9 990.4
10 16.04 СВ 3 н/о н/о +33.3 +13.9 31 +34 +34 очень
жарко
1010.3 991.8
12 16.04 СВ 3 н/о н/о +31.7 +14.4 35 +33 +33 жарко 1012.0 993.4
13 16.04 С 4 н/о н/о +32.0 +16.3 39 +35 +35 очень
душно
1012.3 993.7 +38.3
15 16.04 С 4 н/о н/о +30.5 +18.2 48 +35 +35 очень
душно
1012.1 993.5
16 16.04 СЗ 3 н/о н/о +29.6 +18.1 50 +34 +34 очень
душно
1011.9 993.3
18 16.04 СЗ 3 н/о н/о +28.8 +18.0 52 +33 +33 очень
душно
1010.9 992.4
19 16.04 З 2 н/о н/о +28.2 +18.0 54 +33 +33 очень
душно
1011.0 992.5
21 16.04 Ю 2 н/о н/о +26.9 +18.5 60 +32 +32 очень
душно
1012.0 993.4
22 16.04 В 1 н/о н/о +27.2 +18.5 59 +32 +32 очень
душно
1012.9 994.3
00 17.04 СВ 3 н/о н/о +30.9 +18.9 49 +36 +36 очень
душно
1013.7 995.1
01 17.04 С 2 н/о н/о +32.5 +19.7 47 +38 +38 очень
душно
1013.8 995.2 +26.0
03 17.04 СВ 3 н/о н/о +35.2 +16.5 33 +38 +38 очень
душно
1012.4 993.8
04 17.04 З 3 н/о 1/0 2000 м
[]
+37.3 +14.6 26 +38 +53 опасность
солнечного
удара
1011.3 992.8
06 17.04 ЮВ 3 н/о н/о +37.4 +12.8 23 +37 +37 очень
жарко
1009.4 990.9
07 17.04 Ю 4 н/о 1/0
[]
+37.9 +12.5 22 +38 +42 очень
жарко
1008.9 990.4
10 17.04 СВ 3 н/о н/о +34.2 +14.7 31 +36 +36 душно 1010.5 992.0
12 17.04 С 2 н/о н/о +32.9 +15.0 34 +35 +35 душно 1012.0 993.4
13 17.04 С 2 н/о н/о +31.4 +15.4 38 +34 +34 душно 1012.5 993.9 +38.8
15 17.04 СЗ 3 н/о н/о +30.3 +17.7 47 +35 +35 очень
душно
1012.6 994.0
16 17.04 З 3 н/о н/о +29.3 +17.5 49 +33 +33 душно 1012.0 993.4
18 17.04 ЮЗ 2 н/о н/о +29.1 +18.2 52 +34 +34 очень
душно
1011.3 992.8
19 17.04 Ю 1 н/о н/о +27.9 +17.1 52 +32 +32 душно 1011.2 992.7
21 17.04 Ю 2 н/о н/о +26.8 +17.6 57 +31 +31 душно 1011.9 993.3
22 17.04 ЮЗ 2 н/о н/о +27.5 +17.9 56 +32 +32 очень
душно
1012.6 994.0
00 18.04 ЮВ 4 н/о н/о +32.5 +13.7 32 +34 +34 очень
жарко
1013.5 994.9
01 18.04 В 4 н/о н/о +34.0 +10.6 24 +33 +33 жарко 1013.8 995.2 +25.7
03 18.04 В 4 н/о н/о +36.3 +11.2 22 +36 +36 очень
жарко
1012.6 994.0
04 18.04 В 7 н/о н/о +36.9 +11.7 22 +36 +36 очень
жарко
1011.2 992.7
06 18.04 В 6 н/о н/о +37.2 +11.2 21 +36 +36 очень
жарко
1009.9 991.4
07 18.04 В 4 н/о 1/0
[]
+37.9 +11.8 21 +37 +41 очень
жарко
1009.5 991.0
10 18.04 СВ 3 н/о н/о +32.9 +13.0 30 +34 +34 очень
жарко
1010.6 992.1
12 18.04 В 2 н/о н/о +31.3 +13.6 34 +33 +33 жарко 1012.3 993.7
13 18.04 ЮВ 2 н/о н/о +30.5 +13.3 35 +32 +32 жарко 1012.6 994.0 +38.6
15 18.04 Ю 2 н/о н/о +28.1 +14.3 43 +30 +30 жарко 1012.6 994.0
16 18.04 штиль 0 н/о н/о +27.3 +14.0 44 +29 +29 жарко 1012.0 993.4
18 18.04 ЮВ 2 н/о н/о +26.9 +11.8 39 +28 +28 жарко 1011.6 993.1
19 18.04 В 3 н/о н/о +25.8 +11.2 40 +27 +27 жарко 1012.0 993.4
21 18.04 В 3 н/о н/о +26.7 +10.4 36 +27 +27 жарко 1012.4 993.8
22 18.04 В 2 н/о н/о +26.4 +10.5 37 +27 +27 жарко 1013.2 994.6
00 19.04 В 5 н/о н/о +31.3 +10.1 27 +31 +31 жарко 1014.1 995.5
01 19.04 В 3 н/о н/о +32.0 +10.1 26 +32 +32 жарко 1014.2 995.6 +24.8
03 19.04 СВ 5 н/о н/о +34.1 +14.6 31 +36 +36 душно 1012.3 993.7
04 19.04 С 5 н/о н/о +35.2 +15.0 30 +37 +37 очень
душно
1010.8 992.3
06 19.04 СВ 4 н/о н/о +36.0 +14.1 27 +37 +37 душно 1008.9 990.4
07 19.04 СВ 4 н/о н/о +36.2 +13.6 26 +37 +37 очень
жарко
1008.4 989.9
10 19.04 СВ 3 н/о н/о +33.2 +13.8 31 +34 +34 очень
жарко
1009.6 991.1
12 19.04 СВ 3 н/о н/о +32.0 +15.5 37 +34 +34 душно 1010.8 992.3
13 19.04 СВ 4 н/о н/о +31.3 +16.1 40 +34 +34 душно 1010.9 992.4 +37.1
15 19.04 СЗ 3 н/о н/о +29.1 +17.3 49 +33 +33 очень
душно
1011.1 992.6
16 19.04 СЗ 3 н/о н/о +28.3 +18.1 54 +33 +33 очень
душно
1010.9 992.4
18 19.04 З 2 н/о н/о +27.5 +18.5 58 +32 +32 очень
душно
1010.1 991.6
19 19.04 З 3 н/о н/о +27.1 +18.7 60 +32 +32 очень
душно
1010.0 991.5
21 19.04 ЮВ 3 н/о н/о +26.0 +17.9 61 +30 +30 душно 1011.1 992.6
22 19.04 СВ 4 н/о 6/0
[]
+25.8 +18.7 65 +31 +31 очень
душно
1012.0 993.4
00 20.04 С 3 н/о н/о +30.3 +18.1 48 +35 +35 очень
душно
1013.2 994.6
01 20.04 С 3 н/о н/о +32.4 +17.5 41 +36 +36 очень
душно
1013.4 994.8 +24.7
03 20.04 С 3 н/о н/о +34.0 +13.5 29 +35 +35 очень
жарко
1011.5 993.0
04 20.04 В 2 н/о 9/0
[]
+34.5 +13.3 28 +35 +45 очень
жарко
1010.5 992.0
06 20.04 СЗ 3 н/о н/о +35.8 +12.1 24 +36 +36 очень
жарко
1008.5 990.0
07 20.04 Ю 2 н/о н/о +36.7 +12.8 24 +37 +37 очень
жарко
1007.9 989.4
10 20.04 С 2 н/о н/о +32.0 +13.7 33 +33 +33 жарко 1009.5 991.0
12 20.04 СВ 3 н/о н/о +30.3 +14.8 39 +32 +32 жарко 1010.6 992.1
13 20.04 З 2 н/о н/о +29.4 +15.1 42 +32 +32 душно 1010.7 992.2 +37.3
15 20.04 СЗ 2 н/о н/о +28.4 +16.0 47 +32 +32 душно 1010.5 992.0
16 20.04 СЗ 3 н/о н/о +27.6 +16.2 50 +31 +31 душно 1010.0 991.5
18 20.04 З 2 н/о н/о +27.4 +17.3 54 +31 +31 душно 1009.9 991.4
19 20.04 Ю 2 н/о н/о +27.5 +16.8 52 +31 +31 душно 1010.0 991.5
21 20.04 Ю 3 н/о н/о +25.2 +16.6 59 +29 +29 душно 1010.2 991.7
22 20.04 Ю 2 н/о н/о +25.7 +16.8 58 +29 +29 душно 1010.9 992.4
00 21.04 ЮВ 2 н/о н/о +31.4 +16.9 42 +35 +35 очень
душно
1012.2 993.6
01 21.04 ЮВ 3 н/о н/о +32.9 +15.0 34 +35 +35 душно 1012.4 993.8 +23.9
03 21.04 В 4 н/о н/о +36.1 +11.0 22 +35 +35 очень
жарко
1010.8 992.3
04 21.04 ЮВ 5 н/о 1/0
[]
+37.0 +8.8 18 +35 +43 очень
жарко
1009.8 991.3
06 21.04 В 4 н/о н/о +37.4 +8.2 17 +35 +35 очень
жарко
1008.3 989.8
07 21.04 В 6 н/о н/о +37.6 +7.5 16 +35 +35 очень
жарко
1007.9 989.4
10 21.04 С 2 н/о н/о +33.9 +9.9 23 +33 +33 жарко 1009.4 990.9
12 21.04 СВ 3 н/о н/о +33.0 +10.9 26 +33 +33 жарко 1010.8 992.3
13 21.04 В 2 н/о 10/0
[]
+32.3 +12.0 29 +33 +33 жарко 1011.0 992.5 +38.7
15 21.04 С 3 н/о н/о +29.9 +16.3 44 +33 +33 душно 1011.0 992.5
16 21.04 СЗ 2 н/о н/о +28.7 +16.6 48 +32 +32 душно 1010.6 992.1
18 21.04 ЮЗ 1 н/о н/о +27.2 +16.2 51 +31 +31 душно 1010.1 991.6
19 21.04 ЮВ 3 н/о н/о +25.0 +15.6 56 +28 +28 жарко 1010.2 991.7

 

Местоположение метеостанции Аэропорт Аргайл (Западная Австралия, Австралия): широта -16.63 долгота 128.45 высота над уровнем моря 165 м.

В архиве по умолчанию представлена погода в Аэропорту Аргайл за последнюю неделю. Архивные данные за месяц целиком и за предыдущие месяцы, начиная с января 2011 года, Вы можете получить, выбрав интересующий диапазон дат из раскрывающегося списка и нажав кнопку "Ввод!".


*Определитесь, кто Вы:
робот инопланетянин человек

Внимание! Время в таблицах - всемирное. Для получения местного времени необходимо прибавить поправку, которая равна 8 ч.

Смотрите также архив погоды в соседних городах и на ближайших метеорологических станциях:

Погода в Кунунарре (Западная Австралия, Австралия) (99 км)
Погода в Уиндеме (Западная Австралия, Австралия) (130 км)
Погода в Холс Крик (Западная Австралия, Австралия) (197 км)
Погода в Виктория-Ривер (Северная территория, Австралия) (275 км)
Погода в Порт Китс (Северная территория, Австралия) (289 км)
Погода в Ладжаману (Северная территория, Австралия) (299 км)
Погода в Манбуллу Ксиро (Северная территория, Австралия) (313 км)
Погода в Калумбуру (Западная Австралия, Австралия) (323 км)
Погода в Фицрой-Кроссинге (Западная Австралия, Австралия) (352 км)
Погода в Трускотте (Западная Австралия, Австралия) (360 км)

Пояснения к столбцам:

Ветер - указаны скорость ветра в м/с - средняя за 10 мин, порывы в срок и между сроками (в фигурных скобках) и направление, откуда дует ветер: С - северный, СВ - северо-восточный, В - восточный, ЮВ - юго-восточный, Ю - южный, ЮЗ - юго-западный, З - западный, СЗ - северо-западный.
Видимость - горизонтальная дальность видимости в метрах или километрах. При видимости от 1 до 10 км при отсутствии осадков обычно наблюдается дымка, при ухудшении видимости до 1 км и менее - туман. В сухую погоду видимость может ухудшаться дымом, пылью или мглою.
Явления - указаны атмосферные явления, наблюдавшиеся в срок или в последний час перед сроком; фигурными скобками обозначены явления, наблюдавшиеся между сроками (за 1-3 часа до срока); квадратными скобками обозначены град или гололедные отложения с указанием их диаметра в мм.
Облачность - указаны через наклонную черту общая и нижняя облачность в баллах и высота нижней границы облаков в метрах; квадратными скобками обозначены формы облаков: Ci - перистые, Cs - перисто-слоистые, Cc - перисто-кучевые, Ac - высококучевые, As - высокослоистые, Sc - слоисто-кучевые, Ns - слоисто-дождевые, Cu - кучевые, Cb - кучево-дождевые. Подробнее классификацию облаков см. в Атласе облаков (PDF).
T - Температура воздуха - температура, измеренная на высоте 2 м над землей.
Td - Температура точки росы - температура, при понижении до которой содержащийся в воздухе водяной пар достигнет насыщения.
f - Относительная влажность воздуха - влажноcть воздуха, измеренная на высоте 2 м над землей.
Te - Эффективная температура - температура, которую ощущает одетый по сезону человек в тени. Характеристика душности погоды. При расчете учитывается влияние влажности воздуха и скорости ветра на теплоощущения человека.
Tes - Эффективная температура на солнце - температура, которую ощущает человек, с поправкой на солнечный нагрев. Характеристика знойности погоды. Зависит от высоты солнца над горизонтом, облачности и скорости ветра. Ночью, в пасмурную погоду, а также при ветре 12 м/с и более поправка равна нулю.
P - Атмосферное давление - приведенное к уровню моря атмосферное давление.
Po - Атмосферное давление - измеренное на уровне метеостанции атмосферное давление.
Tmin - Минимальная температура - минимум температуры воздуха на высоте 2 м над землей.
Tmax - Максимальная температура - максимум температуры воздуха на высоте 2 м над землей.
R - Количество осадков - Количество выпавших осадков за период времени, мм. При наведении курсора мыши на число - период времени, за который выпало указанное количество осадков.
R24 - Количество осадков - Количество выпавших осадков за 24 часа, мм.
S - Снежный покров - Высота снежного покрова, см. При наведении курсора мыши на число - состояние снежного покрова и степень покрытия местности в баллах.